Location: Kissing
(48.3027°N, 10.9775°E)
Time: 21:09:13
(UTC+00:00)

Cosmos 1709 Rocket - Pass Details

Date: 07 June 2020
Orbit: 949 x 1001 km, 82.9° (Epoch: 09 July)

Event Time Altitude Azimuth Distance (km) Brightness Sun altitude
Exits shadow 00:05:04 30° 189° (S) 1,657 4.6 -18.0°
Maximum altitude 00:08:22 88° 278° (W) 966 3.9 -17.9°
Drops below altitude 10° 00:14:36 10° 9° (N) 2,718 7.6 -17.7°
Sets 00:17:08 0° 10° (N) 3,676 8.8 -17.6°
